Location: Bridgewater
(44.3670°N, 64.5170°W)
Time: 13:28:39
(UTC-03:00)

Amateur Radio Satellites - All Passes

Search period start: 30 May 2015 12:58
Search period end: 31 May 2015 12:58
Location: Bridgewater, 44.3670°N, 64.5170°W

Satellite Date Start Highest point End Downlink Frequencies (MHz)
Time Altitude Azimuth
Gurwin Techsat 1B 30 May 13:06:20 13:07:41 11° 56° (NE) 13:09:20 435.225
SPROUT 30 May 13:07:21 13:11:22 36° 96° (E) 13:15:22 437.525
ESTCUBE 1 30 May 13:12:58 13:17:23 52° 288° (WNW) 13:21:47 437.505/2401.250
TISAT 1 30 May 13:16:05 13:19:55 32° 96° (E) 13:23:46 437.305
Oscar 19 30 May 13:19:38 13:24:31 45° 70° (ENE) 13:29:29 437.125/150
HUMSAT D 30 May 13:19:44 13:21:58 14° 297° (WNW) 13:24:01 437.325/437.525
50 SAT 30 May 13:23:01 13:25:47 18° 294° (WNW) 13:28:25 437.505
AISAT 30 May 13:29:08 13:32:42 23° 294° (WNW) 13:36:10 437.250
ITAMSAT 1 30 May 13:43:04 13:47:05 24° 63° (ENE) 13:51:13 435.822/435.867
DANDE 30 May 14:04:21 14:11:59 67° 285° (WNW) 14:20:34 436.750
CUSAT 1 30 May 14:10:24 14:18:00 51° 289° (WNW) 14:26:04 437.405
GONETS M04 30 May 14:17:01 14:25:50 67° 283° (WNW) 14:34:39
ITUPSAT 1 30 May 14:18:54 14:22:48 25° 93° (E) 14:26:47 437.325
CUBEBUG 1 30 May 14:20:40 14:23:03 14° 298° (WNW) 14:25:16 437.445
BEESAT 30 May 14:23:59 14:28:05 28° 95° (E) 14:32:15 436.000
RS-15 30 May 14:31:47 14:40:59 28° 10° (N) 14:50:36 29.354- 29.394
SWISSCUBE 30 May 14:32:54 14:37:20 37° 97° (E) 14:41:48 437.505
Gurwin Techsat 1B 30 May 14:41:33 14:46:50 71° 73° (ENE) 14:52:09 435.225
SPROUT 30 May 14:43:49 14:47:17 23° 293° (WNW) 14:50:38 437.525
TISAT 1 30 May 14:52:03 14:55:36 25° 293° (WNW) 14:59:01 437.305
Cosmos 2499 30 May 14:57:11 15:04:44 49° 91° (E) 15:11:51 435.465 / 435.565
HORYU 2 30 May 14:57:32 15:00:26 18° 64° (ENE) 15:03:28 437.375
O/OREOS (USA 219) 30 May 14:59:34 15:03:21 27° 105° (ESE) 15:07:12 437.305
Oscar 19 30 May 14:59:50 15:04:06 25° 267° (W) 15:08:18 437.125/150
KKS-1 30 May 15:04:24 15:06:24 13° 88° (E) 15:08:37 437.445
AO-7 30 May 15:06:52 15:14:13 38° 58° (ENE) 15:21:43 29.400- 29.500
ITAMSAT 1 30 May 15:21:19 15:26:19 49° 261° (W) 15:31:22 435.822/435.867
JAS-2 30 May 15:25:57 15:31:45 40° 69° (ENE) 15:37:03 435.910
DANDE 30 May 15:51:53 15:57:10 17° 308° (NW) 16:02:16 436.750
ITUPSAT 1 30 May 15:56:23 16:00:50 38° 291° (WNW) 16:05:15 437.325
STARS 30 May 15:57:41 16:01:32 29° 95° (E) 16:05:24 437.465
CUSAT 1 30 May 15:59:28 16:03:00 13° 312° (NW) 16:06:03 437.405
BEESAT 30 May 16:01:39 16:05:58 34° 292° (WNW) 16:10:14 436.000
SWISSCUBE 30 May 16:11:03 16:15:03 26° 294° (WNW) 16:18:59 437.505
GONETS M04 30 May 16:19:54 16:24:53 15° 308° (NW) 16:29:23
Gurwin Techsat 1B 30 May 16:24:08 16:27:26 16° 272° (W) 16:30:32 435.225
HORYU 2 30 May 16:32:20 16:36:43 53° 259° (W) 16:41:08 437.375
O/OREOS (USA 219) 30 May 16:38:36 16:42:42 32° 302° (WNW) 16:46:45 437.305
KKS-1 30 May 16:39:07 16:43:35 66° 286° (WNW) 16:48:00 437.445
RS-15 30 May 16:45:43 16:56:52 52° 41° (NE) 17:08:33 29.354- 29.394
Cosmos 2499 30 May 16:51:00 16:58:08 35° 290° (WNW) 17:04:44 435.465 / 435.565
BEESAT 3 30 May 16:51:53 16:54:34 18° 112° (ESE) 16:57:23 437.485
AO-7 30 May 16:58:39 17:06:47 56° 258° (WSW) 17:14:56 29.400- 29.500
MOZHAYETS 4 30 May 17:00:22 17:03:38 20° 91° (E) 17:07:02
JAS-2 30 May 17:11:08 17:16:57 34° 264° (W) 17:22:09 435.910
STARS 30 May 17:34:06 17:37:57 29° 293° (WNW) 17:41:43 437.465
BEESAT 2 30 May 17:44:37 17:48:34 49° 120° (ESE) 17:52:35 435.950
YUBILEINY 30 May 17:59:42 18:07:40 39° 69° (ENE) 18:15:44 435.215
AIST 2 30 May 18:00:50 18:04:05 22° 114° (ESE) 18:07:26 435.215
CUTE-I 30 May 18:02:58 18:07:52 40° 68° (ENE) 18:12:51 437.470
Cosmos 2491 30 May 18:09:47 18:15:26 20° 79° (ENE) 18:21:32 435.465 / 435.565
Cubesat XI-IV 30 May 18:24:26 18:29:39 61° 72° (ENE) 18:34:56 437.490
BEESAT 3 30 May 18:28:13 18:32:13 50° 309° (NW) 18:36:15 437.485
MOZHAYETS 4 30 May 18:36:45 18:41:08 45° 289° (WNW) 18:45:29
BRITE-PL 30 May 18:49:32 18:51:44 13° 57° (ENE) 18:54:13 437.365/2234.400
CUBESAT XI-V 30 May 18:49:55 18:53:37 23° 92° (E) 18:57:25 437.345
RS-15 30 May 18:58:23 19:09:41 58° 245° (WSW) 19:21:20 29.354- 29.394
HO-68 30 May 19:08:32 19:12:51 18° 52° (NE) 19:17:27 435.675
BEESAT 2 30 May 19:23:36 19:26:55 22° 319° (NW) 19:30:11 435.950
AIST 2 30 May 19:38:20 19:42:26 44° 311° (NW) 19:46:33 435.215
CUTE-I 30 May 19:43:29 19:48:05 29° 266° (W) 19:52:39 437.470
CANX-2 30 May 19:43:36 19:45:14 12° 62° (ENE) 19:47:02 2200.000
CUTE 1.7 + AOD 2 30 May 19:46:39 19:48:09 12° 62° (ENE) 19:49:51 437.475
AIST 1 30 May 19:56:26 19:59:21 19° 87° (E) 20:02:24
YUBILEINY 30 May 19:56:29 20:04:46 50° 270° (W) 20:12:57 435.215
CINEMA 3 30 May 19:59:10 20:00:26 11° 59° (ENE) 20:01:59 145.822/145.860
SEEDS 30 May 20:02:05 20:04:14 14° 64° (ENE) 20:06:33 437.485
Cosmos 2491 30 May 20:02:24 20:11:14 89° 279° (W) 20:20:09 435.465 / 435.565
PRISM 30 May 20:04:48 20:08:55 55° 101° (E) 20:13:01 437.425
GOMX 1 30 May 20:06:19 20:11:08 37° 68° (ENE) 20:16:08 467.674
Cubesat XI-IV 30 May 20:06:31 20:10:16 19° 270° (W) 20:13:50 437.490
STRAND 1 30 May 20:07:18 20:12:21 52° 100° (E) 20:17:23 437.568
COMPASS 1 30 May 20:08:54 20:10:52 13° 63° (ENE) 20:13:00 437.405
BEESAT 3 30 May 20:10:33 20:11:13 10° 331° (NNW) 20:11:45 437.485
M-CUBED/EXP-1 PRIME 30 May 20:12:25 20:14:22 15° 98° (E) 20:16:27 437.505
AUBIESAT-1 30 May 20:16:41 20:18:34 15° 98° (E) 20:20:35 437.475
AAUSAT CUBESAT 2 30 May 20:17:19 20:19:26 14° 64° (ENE) 20:21:43 437.432
BRITE-PL 30 May 20:24:03 20:29:18 76° 76° (ENE) 20:34:56 437.365/2234.400
CUBESAT XI-V 30 May 20:26:49 20:31:14 40° 290° (WNW) 20:35:37 437.345
Cosmos 2504 30 May 20:28:53 20:35:10 32° 68° (ENE) 20:41:35 435.465 / 435.565
DOVE 4 30 May 20:46:52 20:51:58 56° 72° (ENE) 20:57:12 437.250
HO-68 30 May 20:52:26 20:59:36 78° 71° (ENE) 21:06:48 435.675
FUNcube-1 30 May 21:00:03 21:01:56 13° 62° (ENE) 21:04:00 145.935
UWE-3 30 May 21:00:06 21:02:57 17° 64° (ENE) 21:05:56 435.000/436.395/437.385
RS-15 30 May 21:15:48 21:20:01 12° 264° (W) 21:23:02 29.354- 29.394
CANX-2 30 May 21:16:23 21:20:39 73° 259° (WSW) 21:24:54 2200.000
CUTE 1.7 + AOD 2 30 May 21:19:17 21:23:33 75° 258° (WSW) 21:27:48 437.475
CINEMA 3 30 May 21:31:50 21:36:51 75° 75° (ENE) 21:41:54 145.822/145.860
AIST 1 30 May 21:32:43 21:36:45 39° 285° (WNW) 21:40:47
UKube-1 30 May 21:35:20 21:37:22 13° 61° (ENE) 21:39:34 .
SEEDS 30 May 21:35:26 21:39:36 60° 260° (W) 21:43:47 437.485
ZACube-1 30 May 21:39:59 21:43:59 31° 69° (ENE) 21:47:59 437.345
PRISM 30 May 21:41:29 21:43:59 15° 297° (WNW) 21:46:20 437.425
COMPASS 1 30 May 21:41:57 21:46:06 63° 259° (W) 21:50:15 437.405
Oscar 11 30 May 21:42:39 21:46:51 53° 72° (ENE) 21:51:05 145.826/435.025
GOMX 1 30 May 21:44:29 21:49:15 33° 267° (W) 21:54:09 467.674
M-CUBED/EXP-1 PRIME 30 May 21:46:26 21:49:24 31° 295° (WNW) 21:52:23 437.505
STRAND 1 30 May 21:47:15 21:51:14 22° 297° (WNW) 21:55:06 437.568
DX 1 30 May 21:49:04 21:52:10 20° 64° (ENE) 21:55:23 434.975-435.025
DELFI C3 30 May 21:50:03 21:53:52 44° 72° (ENE) 21:57:44 145.870
AAUSAT CUBESAT 2 30 May 21:50:31 21:54:38 59° 260° (W) 21:58:45 437.432
AUBIESAT-1 30 May 21:50:32 21:53:32 32° 294° (WNW) 21:56:33 437.475
CUBEBUG 2 30 May 21:55:48 22:00:32 68° 74° (ENE) 22:05:15 437.445
Cosmos 2491 30 May 22:03:07 22:09:38 21° 302° (WNW) 22:15:49 435.465 / 435.565
BRITE-PL 30 May 22:05:18 22:08:35 16° 275° (W) 22:11:43 437.365/2234.400
ISS 30 May 22:18:18 22:21:00 25° 138° (SE) 22:23:44 145.825
VELOX 1 30 May 22:19:17 22:22:31 21° 65° (ENE) 22:25:53 145.980
Cosmos 2504 30 May 22:21:59 22:28:50 48° 269° (W) 22:35:39 435.465 / 435.565
DOVE 4 30 May 22:26:09 22:30:06 21° 271° (W) 22:33:59 437.250
GONETS M04 30 May 22:30:27 22:35:05 16° 53° (NE) 22:40:10
FUNcube-1 30 May 22:33:07 22:37:42 80° 258° (WSW) 22:42:16 145.935
50 SAT 30 May 22:33:59 22:37:22 27° 69° (ENE) 22:40:47 437.505
UWE-3 30 May 22:34:25 22:39:04 62° 260° (W) 22:43:41 435.000/436.395/437.385
HUMSAT D 30 May 22:35:31 22:39:42 52° 73° (ENE) 22:43:54 437.325/437.525
ESTCUBE 1 30 May 22:38:41 22:41:52 20° 65° (ENE) 22:45:11 437.505/2401.250
HO-68 30 May 22:42:52 22:48:11 21° 271° (W) 22:53:14 435.675
AISAT 30 May 22:51:19 22:55:33 43° 70° (ENE) 22:59:49 437.250
ANTELSAT 30 May 22:55:24 22:58:03 16° 89° (E) 23:00:49 437.575/2403.000
DANDE 30 May 23:03:42 23:09:49 26° 59° (ENE) 23:15:03 436.750
CUSAT 1 30 May 23:06:44 23:12:45 30° 63° (ENE) 23:17:40 437.405
UKube-1 30 May 23:08:40 23:13:00 70° 258° (WSW) 23:17:21 .
CINEMA 3 30 May 23:11:53 23:14:39 14° 273° (W) 23:17:11 145.822/145.860
ZACube-1 30 May 23:16:17 23:20:19 29° 265° (W) 23:24:17 437.345
PCSat 30 May 23:18:43 23:20:46 13° 104° (ESE) 23:23:09 145.827
Oscar 11 30 May 23:20:46 23:23:24 15° 271° (W) 23:25:53 145.826/435.025
DX 1 30 May 23:23:57 23:28:08 44° 261° (W) 23:32:21 434.975-435.025
TIGRISAT 30 May 23:25:20 23:29:13 32° 95° (E) 23:33:04 435.000
DELFI C3 30 May 23:26:44 23:29:16 16° 270° (W) 23:31:39 145.870
NANOSAT C BR1 30 May 23:28:31 23:31:09 16° 90° (E) 23:33:55 145.865
O/OREOS (USA 219) 30 May 23:30:41 23:31:13 10° 44° (NE) 23:31:59 437.305
CUBEBUG 2 30 May 23:35:05 23:37:44 14° 272° (W) 23:40:10 437.445
QB50P2 30 May 23:39:15 23:42:33 22° 93° (E) 23:45:55 145.880/145.840
CUBEBUG 1 30 May 23:40:14 23:44:34 70° 74° (ENE) 23:48:59 437.445
UNISAT 6 30 May 23:47:24 23:51:43 57° 100° (E) 23:55:55 437.425
DUCHIFAT 1 30 May 23:48:36 23:52:11 26° 94° (E) 23:55:45 145.980
POPSAT HIP 1 30 May 23:50:10 23:53:50 27° 95° (E) 23:57:31 437.405
BUGSAT 1 30 May 23:52:44 23:55:53 20° 92° (E) 23:59:06 437.445
ISS 30 May 23:54:05 23:57:16 50° 335° (NNW) 00:00:27 145.825
VELOX 1 30 May 23:54:34 23:58:49 43° 262° (W) 00:03:05 145.980
SPROUT 31 May 00:03:02 00:06:58 35° 69° (ENE) 00:10:56 437.525
50 SAT 31 May 00:08:43 00:12:04 25° 266° (W) 00:15:21 437.505
TISAT 1 31 May 00:09:49 00:13:32 30° 69° (ENE) 00:17:19 437.305
HUMSAT D 31 May 00:13:08 00:15:48 15° 271° (W) 00:18:18 437.325/437.525
ESTCUBE 1 31 May 00:14:09 00:18:28 46° 262° (W) 00:22:48 437.505/2401.250
GONETS M04 31 May 00:25:17 00:34:04 69° 78° (ENE) 00:42:46
BEESAT 2 31 May 00:26:36 00:27:13 10° 29° (NNE) 00:27:58 435.950
AISAT 31 May 00:29:02 00:32:22 20° 268° (W) 00:35:36 437.250
ANTELSAT 31 May 00:30:59 00:35:12 49° 288° (WNW) 00:39:20 437.575/2403.000
QB50P1 31 May 00:33:18 00:37:37 82° 103° (ESE) 00:41:52 145.935-145.965
POLYITAN 1 31 May 00:37:44 00:42:03 88° 280° (W) 00:46:18 437.675
DANDE 31 May 00:46:25 00:53:59 66° 265° (W) 00:59:45 436.750
Cosmos 2499 31 May 00:47:04 00:51:16 17° 59° (ENE) 00:55:49 435.465 / 435.565
CUSAT 1 31 May 00:49:16 00:55:49 46° 270° (W) 01:00:50 437.405
PCSat 31 May 00:58:03 01:03:29 87° 123° (ESE) 01:08:57 145.827
TIGRISAT 31 May 01:02:16 01:05:53 25° 293° (WNW) 01:09:21 435.000
NANOSAT C BR1 31 May 01:03:11 01:07:19 48° 288° (WNW) 01:11:24 145.865
O/OREOS (USA 219) 31 May 01:07:07 01:11:36 71° 64° (ENE) 01:16:04 437.305
BEESAT 3 31 May 01:07:58 01:11:11 22° 41° (NE) 01:14:24 437.485
VERMONT LUNAR 31 May 01:09:15 01:11:54 23° 161° (SSE) 01:14:34 437.305
QB50P2 31 May 01:14:38 01:18:35 35° 290° (WNW) 01:22:27 145.880/145.840
CUBEBUG 1 31 May 01:19:44 01:21:31 12° 273° (W) 01:23:04 437.445
DUCHIFAT 1 31 May 01:24:14 01:28:00 30° 291° (WNW) 01:31:41 145.980
UNISAT 6 31 May 01:25:26 01:28:05 16° 297° (WNW) 01:30:33 437.425
POPSAT HIP 1 31 May 01:25:58 01:29:41 28° 292° (WNW) 01:33:19 437.405
ITUPSAT 1 31 May 01:27:14 01:31:31 35° 68° (ENE) 01:35:51 437.325
BUGSAT 1 31 May 01:27:32 01:31:31 38° 290° (WNW) 01:35:27 437.445
Oscar 19 31 May 01:31:14 01:33:33 13° 87° (E) 01:36:07 437.125/150
ISS 31 May 01:31:31 01:34:12 23° 355° (N) 01:36:51 145.825
BEESAT 31 May 01:31:57 01:36:21 39° 69° (ENE) 01:40:48 436.000
SPROUT 31 May 01:39:38 01:43:08 23° 267° (W) 01:46:35 437.525
SWISSCUBE 31 May 01:40:57 01:45:32 52° 72° (ENE) 01:50:11 437.505
TISAT 1 31 May 01:45:43 01:49:19 26° 266° (W) 01:52:54 437.305
BEESAT 2 31 May 02:02:17 02:06:18 51° 50° (NE) 02:10:17 435.950
KKS-1 31 May 02:04:08 02:06:51 16° 63° (ENE) 02:09:42 437.445
QB50P1 31 May 02:11:29 02:12:53 11° 299° (WNW) 02:14:05 145.935-145.965
AIST 2 31 May 02:20:17 02:23:56 27° 43° (NE) 02:27:33 435.215
GONETS M04 31 May 02:23:10 02:30:16 27° 278° (W) 02:37:02
SO-50 31 May 02:24:17 02:28:29 34° 116° (ESE) 02:32:54 436.795
PHONESAT 2.4 31 May 02:30:03 02:33:02 26° 162° (SSE) 02:36:02 2401.200-2431.200
DANDE 31 May 02:33:31 02:35:25 11° 287° (WNW) 02:36:46 436.750
Cosmos 2499 31 May 02:38:32 02:45:38 90° 74° (ENE) 02:52:53 435.465 / 435.565
PCSat 31 May 02:43:42 02:47:40 20° 322° (NW) 02:51:34 145.827
BEESAT 3 31 May 02:45:28 02:49:25 48° 241° (WSW) 02:53:17 437.485
VERMONT LUNAR 31 May 02:45:39 02:48:44 41° 177° (S) 02:51:46 437.305
O/OREOS (USA 219) 31 May 02:48:38 02:50:29 12° 261° (W) 02:52:07 437.305
STARS 31 May 02:56:04 03:00:00 32° 69° (ENE) 03:04:00 437.465
Gurwin Techsat 1B 31 May 02:56:41 03:00:57 25° 92° (E) 03:05:19 435.225
ITUPSAT 1 31 May 03:05:24 03:09:29 27° 266° (W) 03:13:30 437.325
ISS 31 May 03:08:22 03:11:16 28° 15° (NNE) 03:14:11 145.825
Oscar 19 31 May 03:08:27 03:13:38 80° 287° (WNW) 03:18:46 437.125/150
BEESAT 31 May 03:10:28 03:14:21 24° 267° (W) 03:18:11 436.000
SWISSCUBE 31 May 03:20:24 03:23:45 18° 269° (W) 03:26:58 437.505
ITAMSAT 1 31 May 03:32:14 03:37:21 52° 100° (E) 03:42:27 435.822/435.867
KKS-1 31 May 03:38:37 03:43:04 59° 259° (W) 03:47:31 437.445
BEESAT 2 31 May 03:41:18 03:44:03 17° 248° (WSW) 03:46:39 435.950
AIST 2 31 May 03:58:40 04:02:37 38° 243° (WSW) 04:06:27 435.215
MOZHAYETS 4 31 May 04:04:01 04:07:33 23° 66° (ENE) 04:11:12
SO-50 31 May 04:04:38 04:09:03 36° 316° (NW) 04:13:33 436.795
PHONESAT 2.4 31 May 04:07:27 04:10:48 44° 179° (S) 04:14:07 2401.200-2431.200
JAS-2 31 May 04:17:51 04:22:04 25° 93° (E) 04:26:32 435.910
Cosmos 2491 31 May 04:18:04 04:19:45 11° 46° (NE) 04:22:05 435.465 / 435.565
HORYU 2 31 May 04:22:20 04:25:58 25° 94° (E) 04:29:40 437.375
VERMONT LUNAR 31 May 04:22:43 04:25:35 29° 194° (SSW) 04:28:25 437.305
STARS 31 May 04:32:42 04:36:30 26° 266° (W) 04:40:15 437.465
Cosmos 2499 31 May 04:33:53 04:37:52 15° 280° (W) 04:41:30 435.465 / 435.565
Gurwin Techsat 1B 31 May 04:36:06 04:41:12 46° 290° (WNW) 04:46:14 435.225
ISS 31 May 04:44:39 04:47:55 72° 215° (SW) 04:51:10 145.825
Oscar 19 31 May 04:50:12 04:52:14 12° 303° (WNW) 04:54:02 437.125/150
AO-7 31 May 04:58:05 05:06:04 47° 99° (E) 05:14:05 29.400- 29.500
ITAMSAT 1 31 May 05:12:27 05:16:33 23° 297° (WNW) 05:20:30 435.822/435.867
MOZHAYETS 4 31 May 05:40:18 05:44:36 39° 263° (W) 05:48:53
PHONESAT 2.4 31 May 05:45:28 05:48:34 30° 195° (SSW) 05:51:40 2401.200-2431.200
STRAND 1 31 May 05:49:08 05:51:22 13° 58° (ENE) 05:53:48 437.568
SO-50 31 May 05:50:02 05:51:05 11° 338° (NNW) 05:52:00 436.795
CUBESAT XI-V 31 May 05:54:59 05:58:49 27° 67° (ENE) 06:02:46 437.345
HORYU 2 31 May 05:58:40 06:02:41 33° 291° (WNW) 06:06:37 437.375
VERMONT LUNAR 31 May 06:01:56 06:02:10 10° 209° (SSW) 06:02:19 437.305
JAS-2 31 May 06:02:35 06:07:27 41° 291° (WNW) 06:12:28 435.910
Cosmos 2491 31 May 06:10:58 06:19:31 51° 73° (ENE) 06:28:01 435.465 / 435.565
CUTE-I 31 May 06:19:54 06:22:21 14° 86° (E) 06:25:07 437.470
Cubesat XI-IV 31 May 06:40:45 06:44:45 22° 91° (E) 06:48:54 437.490
AO-7 31 May 06:51:03 06:58:53 45° 299° (WNW) 07:06:37 29.400- 29.500
PRISM 31 May 06:56:23 07:00:19 49° 72° (ENE) 07:04:19 437.425
M-CUBED/EXP-1 PRIME 31 May 07:01:23 07:05:00 34° 66° (ENE) 07:08:24 437.505
YUBILEINY 31 May 07:02:48 07:10:46 42° 88° (E) 07:18:50 435.215
AUBIESAT-1 31 May 07:05:11 07:08:43 32° 66° (ENE) 07:12:03 437.475
RS-15 31 May 07:16:01 07:22:54 21° 101° (E) 07:30:31 29.354- 29.394
STRAND 1 31 May 07:24:47 07:29:53 88° 70° (ENE) 07:35:02 437.568
PHONESAT 2.4 31 May 07:25:17 07:26:04 11° 210° (SSW) 07:26:47 2401.200-2431.200
CUBESAT XI-V 31 May 07:31:59 07:36:11 34° 265° (W) 07:40:23 437.345
AIST 1 31 May 07:37:41 07:42:02 58° 79° (E) 07:46:22
CUTE-I 31 May 07:57:49 08:03:13 83° 286° (WNW) 08:08:36 437.470
PCSat 31 May 08:01:49 08:05:44 20° 39° (NE) 08:09:45 145.827
Cosmos 2491 31 May 08:08:14 08:16:13 38° 274° (W) 08:23:58 435.465 / 435.565
Cubesat XI-IV 31 May 08:20:00 08:25:14 54° 290° (WNW) 08:30:28 437.490
HO-68 31 May 08:21:33 08:23:49 12° 83° (E) 08:26:37 435.675
BRITE-PL 31 May 08:28:15 08:32:44 25° 90° (E) 08:37:08 437.365/2234.400
PRISM 31 May 08:33:45 08:36:08 15° 270° (W) 08:38:22 437.425
M-CUBED/EXP-1 PRIME 31 May 08:36:51 08:39:56 20° 260° (W) 08:42:46 437.505
AUBIESAT-1 31 May 08:40:28 08:43:33 21° 260° (W) 08:46:25 437.475
DOVE 4 31 May 08:46:38 08:49:02 14° 85° (E) 08:51:37 437.250
AO-7 31 May 08:46:46 08:49:41 12° 321° (NW) 08:52:12 29.400- 29.500
YUBILEINY 31 May 08:59:13 09:07:35 46° 288° (WNW) 09:15:53 435.215
CANX-2 31 May 09:01:07 09:03:51 17° 90° (E) 09:06:40 2200.000
CUTE 1.7 + AOD 2 31 May 09:04:00 09:06:38 16° 90° (E) 09:09:24 437.475
STRAND 1 31 May 09:07:59 09:09:55 12° 274° (W) 09:11:32 437.568
Cosmos 2504 31 May 09:09:32 09:15:54 27° 85° (E) 09:22:11 435.465 / 435.565
SO-50 31 May 09:14:32 09:16:54 13° 27° (NNE) 09:19:24 436.795
AIST 1 31 May 09:16:58 09:19:14 14° 275° (W) 09:21:19
SEEDS 31 May 09:18:53 09:21:53 19° 91° (E) 09:24:59 437.485
RS-15 31 May 09:22:48 09:33:41 82° 121° (ESE) 09:44:57 29.354- 29.394
COMPASS 1 31 May 09:24:37 09:27:27 18° 91° (E) 09:30:23 437.405
CINEMA 3 31 May 09:27:02 09:29:44 16° 87° (E) 09:32:33 145.822/145.860
AAUSAT CUBESAT 2 31 May 09:32:37 09:35:31 19° 91° (E) 09:38:32 437.432
CUTE-I 31 May 09:39:57 09:42:34 13° 303° (WNW) 09:44:57 437.470
PCSat 31 May 09:44:27 09:49:55 85° 237° (WSW) 09:55:20 145.827
GOMX 1 31 May 09:44:29 09:49:50 76° 102° (ESE) 09:54:50 467.674
CUBEBUG 2 31 May 09:47:47 09:49:22 12° 86° (E) 09:51:08 437.445
ANTELSAT 31 May 09:55:47 09:59:07 20° 65° (ENE) 10:02:33 437.575/2403.000
HO-68 31 May 10:05:53 10:13:03 70° 103° (ESE) 10:20:11 435.675
BRITE-PL 31 May 10:06:07 10:11:33 49° 290° (WNW) 10:16:39 437.365/2234.400
FUNcube-1 31 May 10:21:17 10:24:00 17° 90° (E) 10:26:48 145.935
DOVE 4 31 May 10:22:27 10:27:32 72° 286° (WNW) 10:32:16 437.250
NANOSAT C BR1 31 May 10:23:01 10:25:39 17° 64° (ENE) 10:28:26 145.865
UWE-3 31 May 10:23:36 10:27:03 23° 92° (E) 10:30:29 435.000/436.395/437.385
TIGRISAT 31 May 10:25:17 10:29:32 37° 70° (ENE) 10:33:47 435.000
QB50P2 31 May 10:33:56 10:37:12 22° 66° (ENE) 10:40:33 145.880/145.840
CANX-2 31 May 10:36:01 10:40:03 44° 288° (WNW) 10:44:03 2200.000
CUTE 1.7 + AOD 2 31 May 10:38:48 10:42:51 46° 288° (WNW) 10:46:52 437.475
DUCHIFAT 1 31 May 10:42:39 10:46:07 25° 67° (ENE) 10:49:40 145.980
POPSAT HIP 1 31 May 10:44:35 10:48:10 27° 68° (ENE) 10:51:50 437.405
BUGSAT 1 31 May 10:44:44 10:47:37 19° 65° (ENE) 10:50:38 437.445
UNISAT 6 31 May 10:47:27 10:52:04 63° 73° (ENE) 10:56:37 437.425
SO-50 31 May 10:53:47 10:58:39 51° 49° (NE) 11:03:27 436.795
SEEDS 31 May 10:53:58 10:57:52 38° 289° (WNW) 11:01:43 437.485
UKube-1 31 May 10:55:34 10:58:25 17° 91° (E) 11:01:23 .
COMPASS 1 31 May 10:59:26 11:03:21 40° 288° (WNW) 11:07:14 437.405
Cosmos 2504 31 May 11:00:44 11:08:51 63° 282° (WNW) 11:16:25 435.465 / 435.565
DELFI C3 31 May 11:02:25 11:06:24 61° 100° (E) 11:10:23 145.870
CINEMA 3 31 May 11:02:51 11:07:27 56° 287° (WNW) 11:11:48 145.822/145.860
ZACube-1 31 May 11:02:54 11:07:04 47° 99° (E) 11:11:08 437.345
Oscar 11 31 May 11:04:14 11:08:34 87° 102° (ESE) 11:12:52 145.826/435.025
AAUSAT CUBESAT 2 31 May 11:07:27 11:11:19 38° 289° (WNW) 11:15:10 437.432
DX 1 31 May 11:10:49 11:14:33 27° 95° (E) 11:18:18 434.975-435.025
CUBEBUG 2 31 May 11:22:16 11:26:40 67° 286° (WNW) 11:30:53 437.445
GOMX 1 31 May 11:23:57 11:27:18 17° 300° (WNW) 11:30:22 467.674
QB50P1 31 May 11:27:15 11:31:32 75° 76° (ENE) 11:35:51 145.935-145.965
CUBEBUG 1 31 May 11:29:38 11:31:08 12° 87° (E) 11:32:53 437.445
PCSat 31 May 11:30:22 11:32:36 12° 256° (WSW) 11:34:31 145.827
ANTELSAT 31 May 11:31:07 11:35:38 47° 261° (W) 11:40:05 437.575/2403.000
POLYITAN 1 31 May 11:31:56 11:36:15 86° 78° (ENE) 11:40:37 437.675
GONETS M04 31 May 11:36:45 11:40:57 15° 76° (ENE) 11:45:45
RS-15 31 May 11:37:19 11:47:26 39° 330° (NNW) 11:57:49 29.354- 29.394
50 SAT 31 May 11:42:56 11:46:24 31° 96° (E) 11:49:52 437.505
VELOX 1 31 May 11:43:27 11:47:26 31° 96° (E) 11:51:25 145.980
HUMSAT D 31 May 11:53:34 11:57:44 79° 102° (ESE) 12:01:50 437.325/437.525
HO-68 31 May 11:54:29 12:00:15 26° 302° (WNW) 12:05:50 435.675
FUNcube-1 31 May 11:56:32 12:00:39 45° 288° (WNW) 12:04:39 145.935
NANOSAT C BR1 31 May 11:56:56 12:01:07 52° 260° (W) 12:05:21 145.865
UWE-3 31 May 11:59:45 12:03:42 33° 291° (WNW) 12:07:30 435.000/436.395/437.385
TIGRISAT 31 May 12:02:30 12:06:23 25° 267° (W) 12:10:08 435.000
DOVE 4 31 May 12:03:20 12:04:22 10° 303° (WNW) 12:05:07 437.250
ESTCUBE 1 31 May 12:05:11 12:09:15 32° 96° (E) 12:13:20 437.505/2401.250
QB50P2 31 May 12:08:52 12:12:53 38° 263° (W) 12:16:55 145.880/145.840
CUSAT 1 31 May 12:12:00 12:18:55 37° 88° (E) 12:26:21 437.405
DANDE 31 May 12:13:58 12:20:23 30° 85° (E) 12:27:34 436.750
AISAT 31 May 12:16:33 12:21:04 71° 102° (ESE) 12:25:31 437.250
DUCHIFAT 1 31 May 12:17:57 12:21:49 32° 264° (W) 12:25:41 145.980
BUGSAT 1 31 May 12:18:47 12:22:48 44° 262° (W) 12:26:52 437.445
POPSAT HIP 1 31 May 12:20:09 12:23:58 30° 265° (W) 12:27:46 437.405
UNISAT 6 31 May 12:26:38 12:29:18 15° 271° (W) 12:31:46 437.425
UKube-1 31 May 12:30:39 12:34:51 47° 289° (WNW) 12:39:01 .
SO-50 31 May 12:34:56 12:38:55 24° 247° (WSW) 12:42:46 436.795
DELFI C3 31 May 12:39:09 12:41:04 13° 297° (WNW) 12:42:49 145.870
ZACube-1 31 May 12:40:11 12:43:05 17° 296° (WNW) 12:45:49 437.345
Oscar 11 31 May 12:43:05 12:44:08 11° 299° (WNW) 12:44:58 145.826/435.025
DX 1 31 May 12:46:54 12:50:49 31° 292° (WNW) 12:54:39 434.975-435.025
Oscar 19 31 May 12:48:56 12:53:02 25° 64° (ENE) 12:57:15 437.125/150
